SWR98G LROP-LSZH

Flight info

Callsign SWR98G
Flight time N/A
Altitude 34000
Route SOKRU DCT OXDOC DCT NEKUL DCT MOPUG DCT GOTAR DCT ERKIR DCT KPT/N0440F300 L856 NEGRA
Aircraft A321/M-SDE3FGHIRWY/LB1

Departure

Time 2026-05-07 16:42
Airport Bucharest Henri Coandă International Airport (LROP)

Arrival

Time N/A
Airport Zürich Airport (LSZH)
Time Latitude Longitude Altitude Speed Heading
2026-05-07 16:19 44.57013 26.07963 321 ft 0 kts 354°
2026-05-07 16:34 44.57003 26.07964 320 ft 4 kts 351°
2026-05-07 16:34 44.56977 26.07973 320 ft 4 kts 336°
2026-05-07 16:34 44.56954 26.07992 320 ft 4 kts 317°
2026-05-07 16:34 44.56938 26.08020 319 ft 4 kts 291°
2026-05-07 16:35 44.56934 26.08047 320 ft 0 kts 264°
2026-05-07 16:37 44.56929 26.08018 320 ft 12 kts 247°
2026-05-07 16:37 44.56818 26.07993 320 ft 16 kts 173°
2026-05-07 16:38 44.56763 26.07979 320 ft 8 kts 215°
2026-05-07 16:38 44.56741 26.07921 320 ft 6 kts 255°
2026-05-07 16:38 44.56731 26.07868 320 ft 5 kts 255°
2026-05-07 16:38 44.56723 26.07826 320 ft 4 kts 255°
2026-05-07 16:39 44.56713 26.07776 320 ft 9 kts 255°
2026-05-07 16:39 44.56686 26.07686 320 ft 9 kts 229°
2026-05-07 16:39 44.56631 26.07667 320 ft 8 kts 173°
2026-05-07 16:39 44.56581 26.07675 318 ft 7 kts 174°
2026-05-07 16:40 44.56535 26.07682 319 ft 7 kts 174°
2026-05-07 16:40 44.56491 26.07689 319 ft 6 kts 174°
2026-05-07 16:40 44.56471 26.07712 319 ft 3 kts 122°
2026-05-07 16:40 44.56471 26.07739 319 ft 0 kts 85°
2026-05-07 16:41 44.56472 26.07750 317 ft 10 kts 85°
2026-05-07 16:41 44.56505 26.08192 322 ft 79 kts 84°
2026-05-07 16:41 44.56585 26.09237 318 ft 134 kts 84°
2026-05-07 16:42 44.56699 26.10741 323 ft 175 kts 84°
2026-05-07 16:42 44.56831 26.12521 677 ft 183 kts 83°
2026-05-07 16:42 44.57006 26.14257 1384 ft 178 kts 80°
2026-05-07 16:42 44.57239 26.15956 2003 ft 180 kts 77°
2026-05-07 16:43 44.57674 26.17605 2503 ft 182 kts 58°
2026-05-07 16:43 44.58591 26.18823 3011 ft 186 kts 32°
2026-05-07 16:43 44.59833 26.19521 3321 ft 203 kts 15°
2026-05-07 16:43 44.61282 26.19278 3506 ft 223 kts 330°
2026-05-07 16:44 44.62317 26.17652 3676 ft 234 kts 290°
2026-05-07 16:44 44.62912 26.15432 3815 ft 254 kts 296°
2026-05-07 16:44 44.64121 26.13576 4218 ft 264 kts 324°
2026-05-07 16:44 44.65743 26.12200 4613 ft 278 kts 329°
2026-05-07 16:45 44.67437 26.10864 5290 ft 280 kts 326°
2026-05-07 16:45 44.68838 26.08997 5944 ft 280 kts 302°
2026-05-07 16:45 44.69823 26.06648 6659 ft 279 kts 298°
2026-05-07 16:45 44.70786 26.04267 7330 ft 281 kts 298°
2026-05-07 16:46 44.71755 26.01867 7993 ft 283 kts 298°
2026-05-07 16:46 44.72730 25.99451 8600 ft 286 kts 298°
2026-05-07 16:46 44.73717 25.97012 9196 ft 288 kts 298°
2026-05-07 16:46 44.74712 25.94548 9801 ft 291 kts 298°
2026-05-07 16:47 44.75713 25.92056 10267 ft 300 kts 298°
2026-05-07 16:47 44.76771 25.89418 10393 ft 319 kts 298°
2026-05-07 16:47 44.77880 25.86663 10524 ft 337 kts 298°
2026-05-07 16:47 44.79068 25.83722 10665 ft 353 kts 298°
2026-05-07 16:48 44.80308 25.80657 10827 ft 368 kts 298°
2026-05-07 16:48 44.81596 25.77461 10958 ft 383 kts 298°
2026-05-07 16:48 44.82929 25.74140 11088 ft 395 kts 298°
2026-05-07 16:48 44.84290 25.70742 11398 ft 401 kts 298°
2026-05-07 16:49 44.85666 25.67303 11788 ft 404 kts 298°
2026-05-07 16:49 44.87048 25.63840 12184 ft 406 kts 298°
2026-05-07 16:49 44.88435 25.60361 12554 ft 408 kts 298°
2026-05-07 16:49 44.89828 25.56860 12927 ft 410 kts 298°
2026-05-07 16:50 44.91228 25.53343 13302 ft 412 kts 298°
2026-05-07 16:50 44.92633 25.49816 13662 ft 413 kts 298°
2026-05-07 16:50 44.94046 25.46270 14016 ft 415 kts 298°
2026-05-07 16:50 44.95460 25.42711 14382 ft 416 kts 298°
2026-05-07 16:51 44.96877 25.39134 14724 ft 419 kts 298°
2026-05-07 16:51 44.98299 25.35537 15068 ft 421 kts 297°
2026-05-07 16:51 44.99599 25.31835 15397 ft 421 kts 290°
2026-05-07 16:51 45.00611 25.27949 15760 ft 423 kts 289°
2026-05-07 16:52 45.01622 25.24042 16117 ft 424 kts 289°
2026-05-07 16:52 45.02641 25.20118 16464 ft 426 kts 289°
2026-05-07 16:52 45.03606 25.16146 16814 ft 428 kts 287°
2026-05-07 16:52 45.04472 25.12112 17185 ft 429 kts 284°
2026-05-07 16:53 45.05270 25.08038 17539 ft 431 kts 284°
2026-05-07 16:53 45.06040 25.03927 17885 ft 433 kts 283°
2026-05-07 16:53 45.06810 24.99793 18224 ft 435 kts 283°
2026-05-07 16:53 45.07593 24.95653 18570 ft 437 kts 284°
2026-05-07 16:54 45.08396 24.91501 18898 ft 439 kts 284°
2026-05-07 16:54 45.09217 24.87330 19204 ft 441 kts 284°
2026-05-07 16:54 45.10046 24.83145 19522 ft 443 kts 284°
2026-05-07 16:54 45.10876 24.78944 19835 ft 444 kts 284°
2026-05-07 16:55 45.11711 24.74721 20154 ft 446 kts 284°
2026-05-07 16:55 45.12547 24.70480 20458 ft 448 kts 284°
2026-05-07 16:55 45.13381 24.66227 20748 ft 450 kts 284°
2026-05-07 16:55 45.14214 24.61948 21044 ft 451 kts 284°
2026-05-07 16:56 45.15034 24.57718 21331 ft 452 kts 284°
2026-05-07 16:56 45.15868 24.53410 21605 ft 454 kts 284°
2026-05-07 16:56 45.17547 24.44741 22137 ft 458 kts 284°
2026-05-07 16:57 45.18387 24.40379 22386 ft 460 kts 284°
2026-05-07 16:57 45.19225 24.35999 22625 ft 461 kts 284°
2026-05-07 16:57 45.20063 24.31605 22840 ft 462 kts 284°
2026-05-07 16:57 45.20903 24.27201 23046 ft 464 kts 284°
2026-05-07 16:58 45.21747 24.22779 23232 ft 465 kts 284°
2026-05-07 16:58 45.22592 24.18345 23415 ft 466 kts 284°
2026-05-07 16:58 45.23438 24.13900 23586 ft 467 kts 284°
2026-05-07 16:58 45.24284 24.09441 23731 ft 468 kts 284°
2026-05-07 16:59 45.25131 24.04973 23905 ft 469 kts 284°
2026-05-07 16:59 45.25974 24.00505 24145 ft 468 kts 284°
2026-05-07 16:59 45.26814 23.96039 24393 ft 467 kts 283°
2026-05-07 16:59 45.27650 23.91587 24642 ft 466 kts 283°
2026-05-07 17:00 45.28484 23.87144 24904 ft 465 kts 283°
2026-05-07 17:00 45.29314 23.82708 25163 ft 464 kts 283°
2026-05-07 17:00 45.30138 23.78288 25421 ft 463 kts 283°
2026-05-07 17:00 45.30958 23.73869 25681 ft 462 kts 283°
2026-05-07 17:01 45.31771 23.69467 25942 ft 460 kts 283°
2026-05-07 17:01 45.32582 23.65070 26205 ft 459 kts 283°
2026-05-07 17:01 45.33390 23.60682 26463 ft 458 kts 283°
2026-05-07 17:01 45.34195 23.56313 26722 ft 456 kts 283°
2026-05-07 17:02 45.34999 23.51955 26950 ft 456 kts 283°
2026-05-07 17:02 45.35801 23.47600 27198 ft 455 kts 283°
2026-05-07 17:02 45.36595 23.43258 27456 ft 453 kts 283°
2026-05-07 17:02 45.37383 23.38921 27685 ft 452 kts 283°
2026-05-07 17:03 45.38166 23.34599 27932 ft 451 kts 283°
2026-05-07 17:03 45.38946 23.30279 28180 ft 450 kts 283°
2026-05-07 17:03 45.39725 23.25977 28421 ft 448 kts 283°
2026-05-07 17:03 45.40504 23.21692 28642 ft 447 kts 283°
2026-05-07 17:04 45.41277 23.17420 28815 ft 445 kts 283°
2026-05-07 17:04 45.42048 23.13150 28964 ft 445 kts 283°
2026-05-07 17:04 45.42817 23.08885 29113 ft 445 kts 283°
2026-05-07 17:04 45.43583 23.04615 29324 ft 444 kts 283°
2026-05-07 17:05 45.44342 23.00357 29532 ft 443 kts 282°
2026-05-07 17:05 45.45098 22.96106 29748 ft 442 kts 282°
2026-05-07 17:05 45.45850 22.91866 29930 ft 441 kts 282°
2026-05-07 17:05 45.46347 22.89054 30068 ft 442 kts 282°
2026-05-07 17:06 45.47094 22.84819 30310 ft 440 kts 282°
2026-05-07 17:06 45.47838 22.80598 30496 ft 439 kts 282°
2026-05-07 17:06 45.48823 22.75011 30732 ft 439 kts 282°
2026-05-07 17:06 45.49565 22.70799 30919 ft 437 kts 282°
2026-05-07 17:07 45.50298 22.66601 31118 ft 436 kts 282°
2026-05-07 17:07 45.50793 22.63763 31242 ft 436 kts 281°
2026-05-07 17:07 45.51585 22.59585 31431 ft 437 kts 286°
2026-05-07 17:07 45.52777 22.55590 31618 ft 440 kts 294°
2026-05-07 17:08 45.54181 22.51707 31797 ft 440 kts 294°
2026-05-07 17:08 45.55570 22.47824 31987 ft 439 kts 294°
2026-05-07 17:08 45.56946 22.43938 32165 ft 438 kts 293°
2026-05-07 17:08 45.58297 22.40105 32318 ft 438 kts 293°
2026-05-07 17:09 45.59667 22.36218 32487 ft 438 kts 293°
2026-05-07 17:09 45.61036 22.32335 32649 ft 438 kts 293°
2026-05-07 17:09 45.62406 22.28453 32825 ft 438 kts 293°
2026-05-07 17:09 45.63774 22.24572 33011 ft 437 kts 293°
2026-05-07 17:10 45.65141 22.20691 33191 ft 437 kts 293°
2026-05-07 17:10 45.66501 22.16821 33375 ft 436 kts 293°
2026-05-07 17:10 45.67859 22.12943 33557 ft 436 kts 292°
2026-05-07 17:10 45.69213 22.09066 33735 ft 435 kts 292°
2026-05-07 17:11 45.70566 22.05198 33911 ft 434 kts 292°
2026-05-07 17:11 45.71919 22.01325 33996 ft 436 kts 292°
2026-05-07 17:11 45.74640 21.93512 34008 ft 441 kts 292°
2026-05-07 17:12 45.77371 21.85646 34007 ft 442 kts 292°
2026-05-07 17:12 45.80102 21.77767 34020 ft 442 kts 292°
2026-05-07 17:13 45.82830 21.69878 34020 ft 442 kts 292°
2026-05-07 17:13 45.85550 21.61984 34011 ft 442 kts 292°
2026-05-07 17:14 45.88265 21.54076 34009 ft 442 kts 292°
2026-05-07 17:14 45.90955 21.46212 34004 ft 442 kts 292°
2026-05-07 17:15 45.93665 21.38281 34001 ft 442 kts 292°
2026-05-07 17:15 45.96368 21.30338 33999 ft 442 kts 292°
2026-05-07 17:16 45.99069 21.22386 34002 ft 443 kts 292°
2026-05-07 17:16 46.01771 21.14416 34003 ft 443 kts 292°
2026-05-07 17:17 46.04460 21.06438 34004 ft 444 kts 292°
2026-05-07 17:17 46.07131 20.98487 34003 ft 444 kts 292°
2026-05-07 17:18 46.09829 20.90418 34007 ft 444 kts 292°
2026-05-07 17:18 46.12510 20.82380 34010 ft 445 kts 292°
2026-05-07 17:19 46.15170 20.74386 34010 ft 446 kts 292°
2026-05-07 17:19 46.17351 20.66088 34010 ft 441 kts 283°
2026-05-07 17:20 46.19108 20.57601 34010 ft 442 kts 283°
2026-05-07 17:20 46.20877 20.49091 34011 ft 442 kts 283°
2026-05-07 17:21 46.22630 20.40574 34008 ft 443 kts 283°
2026-05-07 17:21 46.24378 20.32048 34007 ft 443 kts 283°
2026-05-07 17:22 46.26128 20.23506 34006 ft 443 kts 283°
2026-05-07 17:22 46.27869 20.14948 34010 ft 444 kts 283°
2026-05-07 17:23 46.29603 20.06388 34013 ft 444 kts 283°
2026-05-07 17:23 46.31331 19.97823 34015 ft 443 kts 283°
2026-05-07 17:24 46.33050 19.89254 34008 ft 444 kts 283°
2026-05-07 17:24 46.34764 19.80671 34015 ft 443 kts 283°
2026-05-07 17:25 46.36468 19.72094 34014 ft 443 kts 283°
2026-05-07 17:25 46.38167 19.63517 34015 ft 443 kts 283°
2026-05-07 17:26 46.39852 19.54994 34015 ft 443 kts 282°
2026-05-07 17:26 46.41543 19.46411 34015 ft 443 kts 282°
2026-05-07 17:27 46.43218 19.37822 34019 ft 443 kts 282°
2026-05-07 17:27 46.44889 19.29238 34020 ft 442 kts 282°
2026-05-07 17:28 46.46553 19.20666 34019 ft 442 kts 282°
2026-05-07 17:28 46.48212 19.12091 34020 ft 441 kts 281°
2026-05-07 17:29 46.49858 19.03504 34021 ft 441 kts 281°
2026-05-07 17:29 46.51495 18.94932 34018 ft 441 kts 281°
2026-05-07 17:30 46.53130 18.86347 34013 ft 440 kts 281°
2026-05-07 17:30 46.54757 18.77781 34010 ft 440 kts 281°
2026-05-07 17:31 46.56373 18.69213 34018 ft 439 kts 280°
2026-05-07 17:31 46.57989 18.60645 34018 ft 439 kts 280°
2026-05-07 17:32 46.59583 18.52077 34016 ft 439 kts 280°
2026-05-07 17:32 46.61165 18.43576 34009 ft 438 kts 280°
2026-05-07 17:33 46.62749 18.35036 34007 ft 437 kts 280°
2026-05-07 17:33 46.64319 18.26500 34004 ft 437 kts 280°
2026-05-07 17:34 46.65886 18.17972 33995 ft 436 kts 280°
2026-05-07 17:34 46.67441 18.09436 33995 ft 436 kts 279°
2026-05-07 17:35 46.68985 18.00899 33994 ft 436 kts 279°
2026-05-07 17:35 46.70530 17.92366 33995 ft 435 kts 279°
2026-05-07 17:36 46.72073 17.83842 33995 ft 435 kts 279°
2026-05-07 17:36 46.73607 17.75320 33994 ft 434 kts 279°
2026-05-07 17:37 46.75130 17.66802 33991 ft 434 kts 279°
2026-05-07 17:37 46.76641 17.58281 33994 ft 434 kts 278°
2026-05-07 17:38 46.78135 17.49819 33996 ft 433 kts 278°
2026-05-07 17:38 46.79637 17.41243 33998 ft 433 kts 278°
2026-05-07 17:39 46.81121 17.32782 34002 ft 433 kts 278°
2026-05-07 17:39 46.82610 17.24261 34002 ft 433 kts 278°
2026-05-07 17:40 46.84088 17.15738 34003 ft 433 kts 278°
2026-05-07 17:40 46.85560 17.07205 34006 ft 433 kts 278°
2026-05-07 17:41 46.87022 16.98680 34008 ft 432 kts 278°
2026-05-07 17:41 46.88480 16.90157 34004 ft 432 kts 278°
2026-05-07 17:42 46.89927 16.81628 34006 ft 432 kts 278°
2026-05-07 17:42 46.91376 16.73097 34007 ft 432 kts 278°
2026-05-07 17:43 46.92813 16.64570 34005 ft 432 kts 277°
2026-05-07 17:43 46.94236 16.56039 34005 ft 432 kts 277°
2026-05-07 17:44 46.95660 16.47500 34007 ft 432 kts 277°
2026-05-07 17:44 46.97076 16.38962 34006 ft 431 kts 277°
2026-05-07 17:45 46.98485 16.30416 34005 ft 432 kts 277°
2026-05-07 17:45 46.99887 16.21870 34009 ft 431 kts 277°
2026-05-07 17:46 47.01180 16.13357 34006 ft 431 kts 276°
2026-05-07 17:46 47.02413 16.04764 34010 ft 431 kts 275°
2026-05-07 17:47 47.03646 15.96168 34020 ft 431 kts 276°
2026-05-07 17:47 47.04894 15.87580 34036 ft 431 kts 276°
2026-05-07 17:48 47.06137 15.78992 34041 ft 430 kts 276°
2026-05-07 17:48 47.07372 15.70401 34037 ft 430 kts 276°
2026-05-07 17:49 47.08591 15.61816 34040 ft 429 kts 275°
2026-05-07 17:49 47.09807 15.53233 34039 ft 430 kts 276°
2026-05-07 17:50 47.11021 15.44643 34034 ft 430 kts 275°
2026-05-07 17:50 47.12216 15.36055 34039 ft 429 kts 275°
2026-05-07 17:51 47.13405 15.27462 34038 ft 429 kts 276°
2026-05-07 17:51 47.14602 15.18863 34041 ft 430 kts 275°
2026-05-07 17:52 47.15793 15.10258 34047 ft 430 kts 275°
2026-05-07 17:52 47.16973 15.01652 34054 ft 429 kts 276°
2026-05-07 17:53 47.18134 14.93112 34057 ft 429 kts 275°
2026-05-07 17:53 47.19296 14.84511 34058 ft 429 kts 275°
2026-05-07 17:54 47.20446 14.75915 34063 ft 429 kts 275°
2026-05-07 17:54 47.21593 14.67308 34067 ft 429 kts 275°
2026-05-07 17:55 47.22740 14.58693 34068 ft 429 kts 276°
2026-05-07 17:55 47.23876 14.50078 34069 ft 429 kts 275°
2026-05-07 17:56 47.25004 14.41462 34068 ft 429 kts 275°
2026-05-07 17:56 47.26131 14.32828 34065 ft 430 kts 275°
2026-05-07 17:57 47.27065 14.25643 34063 ft 430 kts 275°
2026-05-07 17:57 47.28366 14.15546 34056 ft 429 kts 275°
2026-05-07 17:58 47.29285 14.08358 34058 ft 430 kts 275°
2026-05-07 17:58 47.30390 13.99702 34051 ft 430 kts 275°
2026-05-07 17:59 47.31488 13.91033 34046 ft 430 kts 276°
2026-05-07 17:59 47.32574 13.82375 34039 ft 430 kts 276°
2026-05-07 18:00 47.33659 13.73681 34036 ft 431 kts 276°
2026-05-07 18:00 47.34734 13.64991 34024 ft 431 kts 276°
2026-05-07 18:01 47.35808 13.56310 34043 ft 431 kts 276°
2026-05-07 18:01 47.36871 13.47622 34051 ft 430 kts 275°
2026-05-07 18:02 47.38437 13.34590 34049 ft 429 kts 275°
2026-05-07 18:03 47.39243 13.25875 34055 ft 428 kts 271°
2026-05-07 18:03 47.39741 13.17136 34056 ft 427 kts 270°
2026-05-07 18:04 47.40186 13.08453 34056 ft 427 kts 271°
2026-05-07 18:04 47.40679 12.99707 34059 ft 428 kts 271°
2026-05-07 18:05 47.41205 12.90956 34061 ft 428 kts 271°
2026-05-07 18:05 47.41731 12.82199 34063 ft 428 kts 271°
2026-05-07 18:06 47.42245 12.73428 34058 ft 429 kts 271°
2026-05-07 18:06 47.42743 12.64662 34054 ft 429 kts 271°
2026-05-07 18:07 47.43227 12.55877 34050 ft 429 kts 271°
2026-05-07 18:07 47.43710 12.47073 34049 ft 431 kts 271°